Russellville, AR

4:48 AM CST on February 25, 2017 (GMT -0600)
Russellville Regional

Weather History for KRUE - May, 2014

Change the Weather History Date:

Tuesday, May 13, 2014

  Actual Average (KHOT) Record (KHOT)
Temperature  
Mean Temperature 62 °F -  
Max Temperature 66 °F 81 °F 91 °F (1988)
Min Temperature 57 °F 57 °F 41 °F (1997)
Degree Days  
Heating Degree Days 4    
Growing Degree Days 12 (Base 50)    
Moisture  
Dew Point 58 °F    
Average Humidity 89    
Maximum Humidity 94    
Minimum Humidity 77    
Precipitation  
Precipitation 0.10 in - - ()
Sea Level Pressure  
Sea Level Pressure 30.07 in    
Wind  
Wind Speed 5 mph (NW)    
Max Wind Speed 12 mph    
Max Gust Speed -    
Visibility 8 miles    
Events Rain    
Averages and records for this station are not official NWS values.
T = Trace of Precipitation, MM = Missing Value Source: NWS Daily Summary

Daily Weather History Graph

Daily Weather History Graph

Search for Another Location

Airport or City:

Trip Planner

Search our weather history database for the weather conditions in past years. The results will help you decide how hot, cold, wet, or windy it might be!

Date:

Astronomy

May. 13, 2014 Rise Set
Actual Time 6:09 AM CDT 8:08 PM CDT
Civil Twilight 5:41 AM CDT 8:36 PM CDT
Nautical Twilight 5:07 AM CDT 9:10 PM CDT
Astronomical Twilight 4:31 AM CDT 9:46 PM CDT
Moon 7:12 PM CDT (5/13) 5:23 AM CDT (5/13)
Length of Visible Light 14h 54m
Length of Day
13h 58m
Waxing Gibbous, 99% of the Moon is Illuminated
May 13
Waxing Gibbous
May 14
Full
May 21
Last Quarter
May 28
New
Jun 5
First Quarter

Hourly Weather History & Observations

Time (CDT) Temp. Dew Point Humidity Pressure Visibility Wind Dir Wind Speed Gust Speed Precip Events Conditions
12:39 AM 66.2 °F 64.4 °F 94% 30.00 in 10.0 mi Variable 3.5 mph - 0.01 in   Mostly Cloudy
1:53 AM 66.0 °F 64.0 °F 93% 29.95 in 10.0 mi Variable 3.5 mph - N/A   Mostly Cloudy
2:00 AM 66.2 °F 64.4 °F 94% 29.97 in 10.0 mi South 3.5 mph - N/A   Overcast
2:17 AM 66.2 °F 64.4 °F 94% 29.96 in 10.0 mi Variable 3.5 mph - N/A   Overcast
2:24 AM 66.2 °F 64.4 °F 94% 29.95 in 10.0 mi Calm Calm - N/A   Overcast
2:53 AM 66.0 °F 64.0 °F 93% 29.92 in 10.0 mi NNW 3.5 mph - N/A   Mostly Cloudy
3:45 AM 66.2 °F 64.4 °F 94% 29.95 in 10.0 mi Variable 4.6 mph - 0.00 in Rain Light Rain
3:53 AM 64.9 °F 62.1 °F 90% 29.94 in 10.0 mi West 5.8 mph - 0.00 in Rain Light Rain
4:13 AM 64.4 °F 62.6 °F 94% 29.97 in 10.0 mi Variable 4.6 mph - 0.01 in Rain Light Rain
4:40 AM 64.4 °F 62.6 °F 94% 29.98 in 9.0 mi Variable 4.6 mph - 0.01 in Rain Light Rain
4:53 AM 64.0 °F 62.1 °F 93% 29.97 in 10.0 mi Calm Calm - 0.01 in   Overcast
5:04 AM 64.4 °F 62.6 °F 94% 30.00 in 9.0 mi WSW 5.8 mph - 0.00 in Rain Light Rain
5:13 AM 62.6 °F 60.8 °F 94% 30.01 in 5.0 mi WNW 9.2 mph - 0.01 in Rain Rain
5:27 AM 60.8 °F 59.0 °F 94% 30.01 in 6.0 mi NW 6.9 mph - 0.02 in Rain Light Rain
5:39 AM 60.8 °F 59.0 °F 94% 30.01 in 5.0 mi WNW 11.5 mph - 0.04 in Rain Rain
5:53 AM 61.0 °F 59.0 °F 93% 30.00 in 7.0 mi Variable 5.8 mph - 0.06 in Rain Light Rain
6:40 AM 60.8 °F 57.2 °F 88% 30.04 in 7.0 mi West 4.6 mph - 0.01 in Rain Light Rain
6:53 AM 60.1 °F 57.0 °F 90% 30.02 in 10.0 mi Variable 5.8 mph - 0.01 in   Overcast
8:30 AM 59.0 °F 57.2 °F 94% 30.08 in 10.0 mi WNW 10.4 mph - N/A   Overcast
8:43 AM 59.0 °F 57.2 °F 94% 30.08 in 5.0 mi WNW 9.2 mph - N/A   Overcast
8:53 AM 59.0 °F 57.0 °F 93% 30.08 in 4.0 mi WNW 10.4 mph - N/A   Overcast
9:53 AM 60.1 °F 55.9 °F 86% 30.09 in 10.0 mi WNW 5.8 mph - N/A   Overcast
11:33 AM 59.0 °F 55.4 °F 88% 30.13 in 3.0 mi WNW 8.1 mph - 0.01 in Rain Light Rain
11:53 AM 59.0 °F 55.9 °F 90% 30.12 in 7.0 mi WNW 6.9 mph - 0.01 in Rain Light Rain
12:31 PM 57.2 °F 55.4 °F 94% 30.13 in 2.5 mi WNW 8.1 mph - 0.01 in Rain Light Rain
12:40 PM 59.0 °F 55.4 °F 88% 30.13 in 3.0 mi WNW 5.8 mph - 0.01 in Rain Light Rain
12:53 PM 59.0 °F 55.9 °F 90% 30.12 in 8.0 mi WNW 8.1 mph - 0.01 in   Overcast
1:02 PM 59.0 °F 55.4 °F 88% 30.13 in 10.0 mi WNW 6.9 mph - N/A   Overcast
1:13 PM 59.0 °F 55.4 °F 88% 30.13 in 10.0 mi NW 9.2 mph - N/A   Overcast
1:23 PM 59.0 °F 55.4 °F 88% 30.12 in 10.0 mi WNW 8.1 mph - N/A   Overcast
1:25 PM 59.0 °F 55.4 °F 88% 30.12 in 10.0 mi WNW 6.9 mph - N/A   Overcast
1:37 PM 60.8 °F 55.4 °F 82% 30.12 in 6.0 mi WNW 9.2 mph - N/A   Overcast
1:53 PM 59.0 °F 55.9 °F 90% 30.11 in 8.0 mi WNW 6.9 mph - 0.00 in   Overcast
2:16 PM 60.8 °F 55.4 °F 82% 30.13 in 6.0 mi WNW 8.1 mph - 0.00 in Rain Light Rain
2:27 PM 60.8 °F 55.4 °F 82% 30.13 in 10.0 mi WNW 4.6 mph - 0.00 in   Overcast
2:46 PM 60.8 °F 57.2 °F 88% 30.13 in 10.0 mi NW 3.5 mph - 0.00 in   Overcast
2:53 PM 61.0 °F 57.0 °F 87% 30.12 in 10.0 mi WNW 5.8 mph - 0.00 in   Overcast
3:40 PM 60.8 °F 57.2 °F 88% 30.13 in 5.0 mi NW 5.8 mph - N/A   Overcast
3:50 PM 60.8 °F 57.2 °F 88% 30.13 in 6.0 mi WNW 4.6 mph - N/A   Overcast
3:51 PM 60.1 °F 57.0 °F 90% 30.12 in 6.0 mi WNW 4.6 mph - N/A   Overcast
3:59 PM 60.8 °F 57.2 °F 88% 30.13 in 10.0 mi WNW 5.8 mph - N/A   Overcast
4:11 PM 60.8 °F 57.2 °F 88% 30.13 in 10.0 mi NW 4.6 mph - N/A   Overcast
4:53 PM 60.1 °F 55.9 °F 86% 30.11 in 10.0 mi NW 4.6 mph - N/A   Overcast
5:53 PM 60.1 °F 55.0 °F 83% 30.12 in 10.0 mi NW 6.9 mph - N/A   Overcast
6:53 PM 60.1 °F 53.1 °F 78% 30.13 in 10.0 mi North 9.2 mph - N/A   Overcast
7:53 PM 59.0 °F 52.0 °F 78% 30.14 in 10.0 mi North 6.9 mph - N/A   Overcast
8:53 PM 57.9 °F 51.1 °F 78% 30.17 in 10.0 mi North 6.9 mph - N/A   Overcast
9:53 PM 57.0 °F 50.0 °F 77% 30.18 in 10.0 mi North 4.6 mph - N/A   Overcast
10:53 PM 57.0 °F 50.0 °F 77% 30.18 in 10.0 mi North 5.8 mph - N/A   Overcast
11:53 PM 57.0 °F 50.0 °F 77% 30.19 in 10.0 mi North 5.8 mph - N/A   Overcast